Weather History for KLRO - June, 2013

Change the Weather History Date:

Tuesday, June 11, 2013

  Actual Average (KCHS) Record (KCHS)
Temperature  
Mean Temperature 80 °F 78 °F  
Max Temperature 89 °F 88 °F 98 °F (1963)
Min Temperature 71 °F 69 °F 54 °F (1988)
Degree Days  
Heating Degree Days 0 0  
Month to date heating degree days 0  
Since 1 June heating degree days 0  
Since 1 July heating degree days 1975  
Cooling Degree Days 15 13  
Month to date cooling degree days 136  
Year to date cooling degree days 498  
Since 1 June cooling degree days 136  
Growing Degree Days 30 (Base 50)    
Moisture  
Dew Point 74 °F    
Average Humidity 83    
Maximum Humidity 100    
Minimum Humidity 55    
Precipitation  
Precipitation 1.08 in 0.18 in 9.40 in (1973)
Month to date precipitation 1.80  
Year to date precipitation 18.11  
Sea Level Pressure  
Sea Level Pressure 29.99 in    
Wind  
Wind Speed 7 mph (SSW)    
Max Wind Speed 13 mph    
Max Gust Speed 17 mph    
Visibility 7 miles    
Events Rain , Thunderstorm    
T = Trace of Precipitation, MM = Missing Value Source: NWS Daily Summary

Daily Weather History Graph

Daily Weather History Graph

Search for Another Location

Airport or City:

Trip Planner

Search our weather history database for the weather conditions in past years. The results will help you decide how hot, cold, wet, or windy it might be!

Date:

Astronomy

Jun. 11, 2013 Rise Set
Actual Time 6:10 AM EDT 8:27 PM EDT
Civil Twilight 5:41 AM EDT 8:56 PM EDT
Nautical Twilight 5:06 AM EDT 9:31 PM EDT
Astronomical Twilight 4:28 AM EDT 10:09 PM EDT
Moon 8:45 AM EDT (6/11) 10:37 PM EDT (6/11)
Length of Visible Light 15h 14m
Length of Day
14h 17m
Waxing Crescent, 8% of the Moon is Illuminated
Jun 11
Waxing Crescent
Jun 16
First Quarter
Jun 23
Full
Jun 30
Last Quarter
Jul 8
New

Hourly Weather History & Observations

Time (EDT) Temp. Heat Index Dew Point Humidity Pressure Visibility Wind Dir Wind Speed Gust Speed Precip Events Conditions
12:15 AM 71.6 °F - 71.6 °F 100% 30.04 in 7.0 mi SSW 6.9 mph - N/A   Clear
12:35 AM 71.6 °F - 71.6 °F 100% 30.04 in 8.0 mi SW 4.6 mph - N/A   Clear
12:55 AM 71.6 °F - 71.6 °F 100% 30.04 in 8.0 mi SSW 5.8 mph - N/A   Clear
1:15 AM 71.6 °F - 71.6 °F 100% 30.04 in 7.0 mi SSW 6.9 mph - N/A   Clear
1:35 AM 73.4 °F - 71.6 °F 94% 30.03 in 7.0 mi South 5.8 mph - N/A   Clear
1:55 AM 73.4 °F - 73.4 °F 100% 30.03 in 7.0 mi South 5.8 mph - N/A   Clear
2:15 AM 73.4 °F - 73.4 °F 100% 30.03 in 7.0 mi South 4.6 mph - N/A   Clear
2:35 AM 73.4 °F - 73.4 °F 100% 30.02 in 7.0 mi South 5.8 mph - N/A   Clear
2:55 AM 73.4 °F - 73.4 °F 100% 30.03 in 7.0 mi SSW 5.8 mph - N/A   Clear
3:15 AM 75.2 °F - 73.4 °F 94% 30.01 in 7.0 mi SSW 4.6 mph - N/A   Partly Cloudy
3:35 AM 75.2 °F - 73.4 °F 94% 30.00 in 7.0 mi SSW 8.1 mph - N/A   Clear
1:55 PM 86.0 °F 93.4 °F 73.4 °F 66% 30.01 in 9.0 mi WSW 11.5 mph 17.3 mph N/A   Clear
2:35 PM 87.8 °F 95.6 °F 73.4 °F 62% 30.00 in 9.0 mi WSW 10.4 mph - N/A   Partly Cloudy
2:55 PM 87.8 °F 95.6 °F 73.4 °F 62% 29.99 in 10.0 mi WSW 8.1 mph - N/A   Partly Cloudy
3:15 PM 87.8 °F 95.6 °F 73.4 °F 62% 29.98 in 9.0 mi WSW 11.5 mph - N/A   Partly Cloudy
3:35 PM 87.8 °F 95.6 °F 73.4 °F 62% 29.97 in 8.0 mi WSW 11.5 mph 17.3 mph N/A   Partly Cloudy
3:55 PM 89.6 °F 98.2 °F 73.4 °F 59% 29.96 in 9.0 mi WSW 11.5 mph - N/A   Clear
4:15 PM 89.6 °F 96.2 °F 71.6 °F 55% 29.96 in 10.0 mi WSW 8.1 mph - N/A   Clear
4:35 PM 89.6 °F 96.2 °F 71.6 °F 55% 29.95 in 10.0 mi WSW 10.4 mph 16.1 mph N/A   Partly Cloudy
4:55 PM 87.8 °F 95.6 °F 73.4 °F 62% 29.95 in 10.0 mi SSW 8.1 mph - N/A   Scattered Clouds
5:15 PM 86.0 °F 95.1 °F 75.2 °F 70% 29.95 in 8.0 mi SW 10.4 mph - N/A   Mostly Cloudy
5:35 PM 87.8 °F 97.6 °F 75.2 °F 66% 29.95 in 9.0 mi SSW 8.1 mph - N/A   Mostly Cloudy
5:55 PM 87.8 °F 97.6 °F 75.2 °F 66% 29.95 in 9.0 mi SSW 12.7 mph - N/A   Partly Cloudy
6:15 PM 84.2 °F 92.3 °F 75.2 °F 74% 29.94 in 8.0 mi South 10.4 mph - N/A   Partly Cloudy
6:35 PM 84.2 °F 92.3 °F 75.2 °F 74% 29.95 in 5.0 mi SSW 9.2 mph - N/A   Light Drizzle
6:55 PM 82.4 °F 89.5 °F 75.2 °F 79% 29.95 in 8.0 mi SSW 9.2 mph - N/A   Partly Cloudy
7:15 PM 82.4 °F 90.9 °F 77.0 °F 84% 29.94 in 3.0 mi South 8.1 mph - N/A Rain Light Rain
7:35 PM 80.6 °F 87.1 °F 77.0 °F 89% 29.96 in 5.0 mi SSW 9.2 mph - N/A Thunderstorm Scattered Clouds
7:55 PM 80.6 °F 86.2 °F 75.2 °F 84% 29.97 in 7.0 mi SSW 12.7 mph 17.3 mph N/A   Partly Cloudy
8:15 PM 80.6 °F 85.4 °F 73.4 °F 79% 29.97 in 9.0 mi South 9.2 mph - N/A   Clear
8:35 PM 78.8 °F - 73.4 °F 83% 29.96 in 9.0 mi SSW 6.9 mph - N/A   Scattered Clouds
8:55 PM 78.8 °F - 73.4 °F 83% 29.96 in 10.0 mi South 11.5 mph - N/A Thunderstorm Thunderstorm
9:15 PM 78.8 °F - 73.4 °F 83% 29.97 in 10.0 mi SSW 9.2 mph - N/A Thunderstorm Partly Cloudy
9:35 PM 78.8 °F - 73.4 °F 83% 29.97 in 7.0 mi SW 5.8 mph - N/A Rain , Thunderstorm Rain
9:55 PM 77.0 °F - 75.2 °F 94% 29.99 in 0.5 mi SSW 4.6 mph - 1.08 in Rain , Thunderstorm Heavy Thunderstorms and Rain
10:15 PM 77.0 °F - 75.2 °F 94% 29.99 in 7.0 mi SSW 6.9 mph - N/A   Mostly Cloudy
10:35 PM 75.2 °F - 75.2 °F 100% 29.98 in 7.0 mi SW 5.8 mph - N/A Thunderstorm Clear
10:55 PM 75.2 °F - 75.2 °F 100% 29.98 in 5.0 mi SSW 3.5 mph - N/A   Partly Cloudy
11:15 PM 75.2 °F - 75.2 °F 100% 30.00 in 2.0 mi SSE 3.5 mph - N/A   Scattered Clouds
11:35 PM 75.2 °F - 75.2 °F 100% 29.99 in 2.0 mi Calm Calm - N/A   Scattered Clouds
11:55 PM 75.2 °F - 75.2 °F 100% 29.99 in 2.5 mi Calm Calm - N/A   Scattered Clouds